Probability
23 32 55 55 45 45 45 48 48 48 45 48 45 39 32 29 29 19 19 23 23 26 19 13 6 13 13 16 10 16 13 10 16 10 10 10 6 3 3 3 3 0 6
23 26 52 55 48 45 45 48 48 45 42 48 45 35 35 29 29 26 23 26 26 26 19 13 13 16 13 16 13 10 10 10 10 10 6 3 6 3 3 3 6 6 6
19 26 42 52 52 48 45 48 45 42 42 39 39 32 32 32 29 26 23 23 23 23 19 19 19 13 13 13 13 13 10 6 6 10 3 3 3 3 3 3 3 10 6
16 23 32 52 48 52 45 45 42 42 39 39 39 35 35 29 29 23 29 26 26 19 19 19 10 13 10 10 10 13 6 6 6 3 0 0 0 3 3 3 3 3 6
16 29 39 58 55 48 45 45 35 35 39 45 42 39 35 26 26 23 26 23 26 19 16 13 13 13 16 13 10 10 6 6 6 0 0 0 0 3 3 3 3 3 6
19 29 39 55 55 52 48 42 39 39 39 35 35 39 32 26 23 23 32 29 23 16 13 13 13 13 13 10 6 0 3 3 0 0 0 0 0 3 6 3 3 3 3
23 35 39 48 52 55 45 45 39 39 35 35 35 35 35 32 29 23 29 23 19 13 10 10 13 6 6 6 3 3 3 0 0 0 0 0 3 3 3 3 3 3 3
19 26 32 48 52 52 52 35 39 42 39 35 35 35 35 35 29 29 26 19 13 10 6 10 10 3 6 6 6 0 0 0 0 0 0 0 0 3 3 3 3 3 0
16 29 26 35 42 45 42 42 39 42 35 35 35 32 32 32 32 29 26 19 6 6 3 3 3 3 3 6 3 3 0 0 0 0 0 0 0 3 3 3 0 0 3
23 19 19 23 29 32 26 23 19 26 26 29 29 26 16 16 23 23 16 10 10 10 3 3 3 0 0 0 0 0 0 0 0 0 0 0 0 0 0 0 0 0 0
13 19 16 26 23 26 26 10 13 3 3 10 16 6 0 26 19 13 3 3 6 10 10 3 0 0 0 0 0 0 0 0 0 0 0 0 0 0 0 0 0 0 0
13 16 13 16 26 23 13 16 19 13 16 13 13 13 13 19 10 10 0 0 0 0 0 0 0 0 0 0 0 0 0 0 0 0 0 0 0 0 0 0 0 0 0
3 10 10 10 13 16 23 16 13 13 13 10 16 13 13 16 16 10 10 3 0 0 0 0 0 0 0 0 0 0 0 0 0 0 0 0 0 0 0 0 0 0 0
0 0 6 10 10 16 16 10 13 6 10 10 6 10 16 16 16 19 10 6 3 0 0 0 0 0 0 0 0 0 0 0 0 0 0 0 0 0 0 0 0 0 0
0 0 0 3 6 10 13 13 3 6 6 10 13 6 13 16 6 10 6 6 3 0 0 0 0 0 0 0 0 0 0 0 0 0 0 0 0 0 0 0 0 0 0
0 0 0 0 0 6 6 16 13 0 3 3 6 3 3 3 6 6 6 6 3 0 0 0 0 0 0 0 0 0 0 0 0 0 0 0 0 0 0 0 0 0 0
0 0 0 0 0 0 3 6 6 10 10 6 3 3 3 0 3 3 6 6 0 0 0 0 0 0 0 0 0 0 0 0 0 0 0 0 0 0 0 0 0 0 0
0 0 0 0 0 0 0 0 3 6 10 13 3 0 0 0 3 3 3 6 3 0 0 0 0 0 0 0 0 0 0 0 0 0 0 0 0 0 0 0 0 0 0
0 0 0 0 0 0 0 0 0 3 3 6 3 0 0 0 0 3 3 0 3 0 0 0 0 0 0 0 0 0 0 0 0 0 0 0 0 0 0 0 0 0 0
0 0 0 0 0 0 0 0 3 3 3 3 0 0 0 0 0 0 3 0 0 0 0 0 0 0 0 0 0 0 0 0 0 0 0 0 0 0 0 0 0 0 0
0 0 0 0 0 0 0 0 0 0 0 0 0 0 0 0 0 0 0 0 0 0 0 0 0 0 0 0 0 0 0 0 0 0 0 0 0 0 0 0 0 0 0
0 0 0 0 0 0 0 0 0 0 0 0 0 0 0 0 0 0 0 0 0 0 0 0 0 0 0 0 0 0 0 0 0 0 0 0 0 0 0 0 0 0 0
0 0 0 0 0 0 0 0 0 0 0 0 0 0 0 0 0 0 0 0 0 0 0 0 0 0 0 0 0 0 0 0 0 0 0 0 0 0 0 0 0 0 0
0 0 0 0 0 0 0 0 0 0 0 0 0 0 0 0 0 0 0 0 0 0 0 0 0 0 0 0 0 0 0 0 0 0 0 0 0 0 0 0 0 0 0
0 0 0 0 0 0 0 0 0 0 0 0 0 0 0 0 0 0 0 0 0 0 0 0 0 0 0 0 0 0 0 0 0 0 0 0 0 0 0 0 0 0 0
0 0 0 0 0 0 0 0 0 0 0 0 0 0 0 0 0 0 0 0 0 0 0 0 0 0 0 0 0 0 0 0 0 0 0 0 0 0 0 0 0 0 0
Height
5847 5848 5849 5850 5851 5852 5853 5854 5855 5856 5857 5858 5858 5859 5860 5861 5861 5862 5863 5863 5864 5865 5865 5866 5867 5867 5868 5869 5869 5870 5870 5871 5871 5871 5872 5872 5872 5872 5872 5872 5872 5871 5871
5844 5845 5846 5848 5849 5850 5851 5852 5853 5854 5855 5855 5856 5857 5858 5859 5860 5860 5861 5862 5863 5863 5864 5865 5866 5866 5867 5867 5868 5869 5869 5870 5870 5870 5871 5871 5871 5871 5871 5871 5871 5871 5870
5840 5841 5843 5844 5845 5847 5848 5849 5850 5851 5852 5853 5854 5855 5856 5857 5857 5858 5859 5860 5861 5862 5863 5863 5864 5865 5866 5866 5867 5867 5868 5868 5869 5869 5870 5870 5870 5870 5870 5870 5870 5870 5870
5836 5837 5839 5840 5842 5843 5845 5846 5847 5848 5849 5850 5851 5852 5853 5854 5855 5856 5857 5858 5859 5860 5861 5862 5862 5863 5864 5865 5865 5866 5866 5867 5867 5868 5868 5869 5869 5869 5869 5869 5869 5869 5869
5831 5833 5834 5836 5838 5839 5841 5842 5844 5845 5846 5847 5848 5849 5850 5851 5852 5853 5854 5855 5857 5858 5859 5859 5860 5861 5862 5863 5864 5864 5864 5865 5866 5866 5867 5867 5867 5868 5868 5868 5868 5868 5868
5826 5828 5829 5831 5833 5835 5837 5838 5840 5841 5842 5843 5844 5846 5847 5848 5849 5851 5852 5853 5854 5855 5856 5857 5858 5859 5860 5861 5861 5862 5862 5863 5864 5864 5865 5865 5865 5866 5866 5866 5866 5866 5866
5820 5823 5825 5826 5828 5830 5832 5834 5835 5837 5838 5839 5841 5842 5843 5845 5846 5847 5849 5850 5851 5852 5853 5854 5855 5856 5857 5858 5859 5859 5860 5860 5861 5861 5862 5862 5863 5863 5864 5864 5864 5864 5864
5815 5817 5819 5821 5823 5825 5827 5829 5831 5832 5834 5835 5837 5838 5840 5841 5842 5844 5845 5847 5848 5849 5850 5851 5852 5853 5854 5855 5856 5856 5857 5857 5858 5858 5859 5859 5860 5861 5861 5862 5862 5862 5862
5809 5811 5813 5815 5817 5820 5822 5824 5826 5828 5829 5831 5832 5834 5835 5837 5839 5840 5842 5843 5844 5845 5846 5847 5849 5850 5850 5851 5852 5853 5853 5854 5854 5855 5855 5856 5857 5858 5858 5859 5859 5860 5860
5803 5805 5807 5809 5812 5814 5816 5818 5821 5823 5824 5826 5828 5830 5831 5833 5835 5836 5838 5839 5841 5842 5843 5844 5845 5846 5847 5848 5848 5849 5849 5849 5850 5850 5851 5852 5853 5854 5855 5856 5856 5857 5857
5797 5799 5801 5803 5805 5808 5810 5813 5815 5817 5819 5821 5823 5825 5827 5828 5830 5832 5834 5835 5837 5838 5839 5840 5841 5842 5843 5843 5844 5844 5845 5845 5846 5846 5847 5848 5849 5850 5851 5852 5853 5853 5853
5790 5792 5795 5797 5799 5802 5804 5806 5809 5811 5813 5815 5818 5820 5822 5824 5825 5827 5829 5831 5832 5834 5835 5836 5837 5837 5838 5839 5839 5840 5840 5841 5841 5842 5843 5844 5845 5846 5847 5848 5849 5850 5850
5783 5786 5788 5791 5793 5795 5798 5800 5803 5805 5807 5810 5812 5814 5816 5818 5820 5822 5824 5826 5827 5829 5830 5831 5832 5833 5833 5834 5834 5835 5836 5836 5837 5838 5839 5840 5841 5842 5843 5844 5845 5846 5846
5777 5779 5782 5784 5786 5789 5791 5794 5796 5799 5801 5804 5806 5808 5810 5812 5815 5817 5818 5820 5822 5823 5825 5826 5827 5828 5828 5829 5830 5830 5831 5831 5833 5834 5835 5836 5837 5838 5838 5839 5840 5841 5842
5770 5772 5774 5777 5779 5782 5784 5787 5790 5792 5795 5797 5799 5802 5804 5806 5808 5810 5812 5814 5816 5817 5819 5820 5821 5822 5823 5824 5824 5825 5826 5826 5827 5829 5830 5831 5832 5833 5834 5835 5835 5836 5837
5763 5765 5767 5770 5772 5774 5777 5780 5783 5785 5788 5790 5792 5795 5797 5800 5802 5804 5806 5807 5809 5811 5812 5814 5815 5816 5817 5818 5819 5819 5820 5821 5822 5823 5824 5825 5826 5827 5828 5829 5830 5831 5832
5755 5758 5760 5762 5765 5767 5770 5773 5775 5777 5780 5783 5785 5788 5790 5793 5794 5796 5798 5800 5802 5804 5805 5807 5808 5810 5811 5812 5812 5813 5814 5815 5816 5817 5819 5820 5821 5821 5822 5823 5824 5825 5826
5748 5750 5753 5755 5757 5760 5762 5765 5767 5769 5772 5775 5778 5780 5782 5785 5787 5788 5791 5793 5794 5796 5798 5799 5801 5803 5804 5805 5806 5807 5808 5809 5810 5811 5812 5813 5814 5815 5816 5816 5818 5819 5820
5740 5743 5745 5747 5750 5752 5754 5756 5759 5762 5765 5768 5770 5773 5775 5777 5779 5781 5782 5784 5786 5788 5790 5792 5793 5795 5796 5797 5798 5800 5801 5802 5803 5804 5805 5806 5807 5808 5809 5809 5811 5812 5813
5732 5734 5737 5739 5742 5744 5746 5748 5751 5754 5757 5759 5762 5764 5766 5768 5770 5772 5774 5776 5778 5779 5781 5783 5785 5787 5788 5789 5791 5792 5793 5795 5796 5797 5798 5798 5799 5800 5801 5802 5803 5805 5805
5724 5726 5729 5731 5733 5735 5738 5740 5743 5745 5748 5750 5753 5755 5757 5759 5761 5763 5765 5767 5769 5771 5773 5774 5776 5778 5779 5781 5783 5784 5785 5787 5788 5789 5790 5791 5791 5792 5793 5794 5795 5796 5797
5716 5718 5720 5722 5724 5727 5729 5731 5733 5736 5738 5741 5743 5746 5747 5749 5751 5753 5756 5758 5759 5761 5763 5765 5767 5769 5771 5772 5774 5775 5777 5779 5779 5780 5781 5782 5783 5784 5785 5785 5786 5787 5788
5707 5710 5711 5713 5715 5718 5720 5722 5724 5726 5729 5731 5734 5736 5738 5740 5741 5743 5746 5747 5750 5752 5754 5756 5758 5760 5762 5763 5765 5767 5768 5770 5771 5772 5772 5773 5774 5775 5776 5776 5777 5778 5779
5699 5701 5703 5704 5706 5709 5710 5712 5714 5717 5720 5722 5724 5726 5728 5730 5732 5733 5735 5737 5740 5742 5745 5746 5748 5750 5752 5754 5756 5757 5759 5760 5761 5762 5763 5764 5764 5765 5766 5767 5768 5769 5770
5689 5691 5694 5695 5697 5699 5701 5703 5705 5707 5710 5712 5714 5716 5718 5720 5722 5724 5725 5727 5730 5732 5734 5737 5738 5740 5742 5744 5745 5747 5748 5750 5751 5752 5753 5754 5754 5755 5756 5757 5758 5759 5760
5680 5682 5684 5686 5688 5690 5692 5694 5696 5698 5700 5702 5704 5706 5708 5710 5711 5713 5715 5717 5719 5722 5724 5726 5727 5729 5731 5732 5734 5736 5737 5739 5740 5741 5742 5743 5744 5745 5746 5746 5747 5748 5749
Wind_Speed
17 17 16 16 15 14 13 13 13 13 12 11 11 11 11 11 10 9 9 8 8 8 8 7 7 6 6 5 5 4 4 4 3 3 2 1 1 0 1 1 1 2 2
20 19 19 18 17 16 15 15 15 14 14 13 13 13 13 13 12 11 10 10 9 9 9 8 8 7 6 6 5 5 5 5 5 4 3 3 2 2 1 1 2 2 2
22 21 20 20 19 18 17 16 16 16 16 15 15 14 14 14 13 13 12 11 11 10 9 9 9 8 7 7 7 6 6 6 6 6 5 4 3 3 3 2 2 3 3
23 23 22 21 21 20 19 18 18 18 18 17 17 16 15 15 15 14 14 13 12 12 11 10 10 9 8 8 7 7 7 7 7 7 6 5 5 5 4 4 4 4 4
25 24 24 23 22 21 21 20 20 20 19 19 18 18 17 16 16 16 15 15 14 13 12 11 11 10 10 9 9 9 8 8 8 8 8 7 7 7 6 6 5 5 5
26 25 25 25 24 23 23 22 21 21 21 20 20 19 19 18 18 17 17 16 15 15 14 13 12 12 11 11 10 10 10 10 10 10 9 9 9 8 8 7 7 7 7
27 27 26 26 25 24 24 23 22 22 22 22 22 21 21 20 19 19 18 17 16 15 15 15 15 14 13 13 12 12 12 11 11 11 11 11 10 9 9 9 8 8 8
28 28 28 28 27 26 25 24 24 23 23 23 23 23 22 22 21 20 20 19 18 18 17 16 16 15 15 14 14 14 13 13 13 13 13 12 11 11 10 10 10 9 9
28 29 28 29 29 28 27 26 25 24 24 24 24 24 24 23 23 22 21 21 20 20 19 18 18 17 16 16 16 15 15 15 15 14 14 14 13 12 12 12 11 11 11
29 29 29 29 29 29 29 28 27 27 26 26 26 25 25 25 24 23 22 21 21 21 20 19 19 18 17 17 17 17 17 17 17 16 16 16 15 15 14 13 13 13 12
30 30 30 30 30 29 29 30 30 29 28 27 28 27 27 27 26 25 24 23 21 22 22 21 20 20 19 18 18 18 18 18 19 19 18 18 17 17 16 15 15 14 14
30 31 31 31 31 30 30 29 30 30 30 29 29 29 29 28 28 28 27 26 24 23 23 22 22 22 21 21 20 20 19 19 20 20 19 19 19 19 18 17 17 16 16
30 31 31 32 32 31 31 31 30 29 30 30 30 30 30 30 30 29 29 28 28 26 25 24 23 23 22 22 22 22 22 22 21 21 20 20 20 21 20 20 19 18 18
31 31 33 32 33 33 32 32 32 31 31 30 30 31 31 31 31 31 31 31 30 29 27 27 26 25 24 23 23 23 24 24 23 23 22 22 22 22 22 21 21 21 20
32 32 32 33 33 34 34 33 33 33 33 32 32 32 32 32 33 33 33 32 31 31 30 28 28 27 27 26 25 25 25 25 24 24 24 23 24 24 23 23 22 22 22
31 33 33 33 33 34 34 34 34 33 34 34 34 33 33 33 34 34 34 34 33 33 32 31 30 29 29 28 27 27 27 27 27 26 25 25 24 24 25 25 24 23 23
32 32 32 33 34 34 35 35 35 35 35 35 34 35 35 35 35 35 35 36 35 34 33 33 32 32 31 30 29 30 29 29 29 29 28 27 26 26 26 26 26 25 25
33 33 32 33 33 34 35 36 37 36 35 34 35 35 36 36 36 36 36 37 38 37 36 34 34 33 33 32 32 32 32 31 31 30 31 31 30 29 29 29 28 28 27
34 34 33 34 34 34 35 36 38 38 36 36 36 37 37 37 38 38 38 38 39 40 39 37 36 35 34 34 34 34 34 33 32 32 32 32 33 32 32 31 30 30 29
34 35 34 34 35 36 36 37 38 38 38 38 37 38 38 38 38 39 40 40 40 39 39 38 38 37 37 36 36 36 36 35 34 34 34 34 34 35 35 34 33 33 32
36 35 35 35 36 37 37 38 38 39 40 39 39 39 39 40 40 40 40 41 41 40 39 39 39 39 38 38 38 37 37 36 36 36 36 36 36 37 37 37 36 36 35
36 36 36 37 37 38 38 39 39 40 41 41 40 40 40 41 42 42 41 42 41 41 41 41 40 40 39 39 39 39 38 38 37 37 37 38 38 38 39 39 38 38 38
35 36 37 38 38 38 38 39 39 40 41 41 41 41 41 41 42 43 42 43 43 41 40 40 41 41 41 41 41 40 40 39 39 38 38 38 39 40 41 42 41 40 41
36 37 37 38 38 38 38 38 38 39 40 41 41 41 42 42 43 44 43 44 44 43 42 42 41 42 42 42 42 42 41 41 41 40 40 40 40 41 42 43 42 42 42
37 37 38 38 38 38 38 38 38 38 39 41 41 41 41 41 41 43 43 45 45 45 45 44 43 44 44 45 44 44 43 43 43 43 42 42 43 43 43 43 43 43 44
37 38 38 39 39 40 39 39 39 39 40 41 41 42 42 42 42 43 44 45 45 45 46 46 45 45 45 46 46 45 45 45 45 45 45 45 44 44 44 44 44 44 45
Wind_Direction
235 234 232 231 230 230 230 228 227 225 225 223 221 220 220 218 214 211 209 206 202 201 201 201 204 205 206 209 211 214 214 215 217 215 207 205 238 309 346 2 353 354 358
236 235 235 235 234 233 232 232 231 229 228 227 227 226 223 220 217 215 214 211 207 207 207 208 210 214 217 215 217 224 226 227 228 224 221 232 248 273 295 316 325 332 339
236 235 236 236 236 235 234 234 234 232 231 231 232 230 226 223 220 219 218 215 212 211 212 214 216 221 223 221 223 229 230 233 230 225 226 237 252 266 279 291 304 311 317
236 236 236 236 236 236 236 235 234 234 234 233 234 231 228 225 223 223 222 219 217 216 216 217 220 225 227 227 227 232 236 237 233 228 230 239 253 263 269 277 287 294 298
236 236 236 236 236 237 237 237 235 235 234 234 233 232 230 228 225 226 225 222 222 223 222 223 223 226 230 232 232 235 239 241 237 235 238 244 252 257 263 270 279 285 291
234 235 236 237 236 237 237 238 237 236 236 234 233 232 231 229 228 228 228 225 225 227 226 226 227 230 233 237 238 239 241 243 243 243 245 250 254 256 259 265 272 279 285
235 235 236 237 236 237 237 237 237 236 236 235 234 233 232 231 231 230 230 228 227 229 230 231 232 235 238 240 242 242 243 245 247 248 250 252 253 253 256 260 266 273 278
236 235 236 236 236 237 238 238 238 237 236 235 234 233 234 233 232 232 231 231 230 231 233 234 236 239 240 243 245 244 245 246 248 250 250 250 251 251 253 258 264 268 273
236 236 237 236 236 237 238 238 238 238 237 236 235 233 233 233 233 232 232 233 233 234 235 236 239 240 242 246 247 247 247 248 249 251 249 248 249 250 252 257 262 266 270
238 238 238 236 237 237 237 238 238 238 238 237 236 235 234 234 233 233 233 233 233 235 236 238 241 242 244 246 249 250 251 251 250 250 248 247 247 248 251 256 262 266 269
239 238 239 236 236 237 238 238 238 239 239 239 238 236 236 235 235 235 235 235 236 237 238 239 241 243 245 248 250 251 253 252 250 249 248 248 247 247 250 254 260 265 269
240 238 239 238 237 237 238 238 239 239 239 240 240 238 237 237 237 236 237 237 238 239 241 242 243 245 247 249 251 252 253 252 249 249 249 250 250 249 250 253 257 261 266
241 240 239 239 237 237 238 239 239 239 240 240 240 239 239 238 239 239 238 239 241 243 244 245 247 248 249 251 252 252 251 250 248 249 250 251 252 251 251 254 257 260 265
242 241 240 241 238 239 239 240 240 240 241 240 240 240 240 239 240 240 241 242 243 244 245 246 249 249 250 251 252 252 251 249 249 249 250 252 253 253 252 254 257 260 263
243 241 242 241 239 239 240 240 241 241 242 242 241 241 241 241 241 241 242 243 244 245 246 248 249 249 251 252 252 251 250 249 249 249 250 251 253 254 252 254 257 259 262
244 243 245 242 239 239 240 241 242 243 243 243 243 243 243 243 243 244 244 243 244 245 246 247 248 250 251 253 253 252 251 250 249 250 251 252 254 256 253 253 255 258 262
245 244 246 244 243 241 241 242 242 243 244 243 244 244 244 245 245 245 246 245 245 246 246 248 249 250 251 252 253 253 251 251 250 251 251 252 254 256 253 253 255 257 260
245 245 246 245 244 244 243 243 243 243 244 245 246 246 246 246 246 246 247 247 246 246 247 248 249 250 252 252 252 252 252 252 252 253 252 252 254 255 253 253 255 257 259
245 245 245 244 244 244 244 244 244 244 245 246 248 248 248 248 248 248 248 248 248 247 247 249 250 251 252 253 252 252 251 252 253 254 255 254 254 254 252 252 254 256 260
246 246 245 245 245 245 246 246 246 245 246 247 248 248 248 248 249 249 249 249 249 248 248 249 250 252 252 252 253 252 251 252 254 255 256 256 255 254 253 252 253 256 259
248 248 246 246 247 247 247 248 248 247 247 247 247 249 249 249 250 250 251 250 250 250 250 251 252 253 253 253 252 252 253 253 255 256 257 257 256 254 253 253 255 257 259
249 248 248 248 248 248 248 248 248 248 248 248 248 249 250 251 251 251 252 251 250 251 251 253 254 254 253 253 252 252 252 254 256 256 257 258 257 255 253 254 257 259 260
250 250 250 250 249 248 249 249 248 249 250 249 250 251 252 253 253 252 253 251 249 250 252 254 255 255 254 253 253 253 253 254 255 256 257 258 257 256 255 255 257 259 260
250 251 251 250 250 250 251 250 250 250 252 251 251 252 252 253 253 253 253 252 250 251 252 254 255 256 255 254 254 254 254 255 256 257 257 258 258 258 257 257 258 259 261
250 251 251 251 252 252 253 253 252 252 253 252 251 252 253 254 255 254 254 253 252 252 252 253 254 255 256 255 255 255 255 256 256 257 257 259 259 259 258 258 259 259 261
250 251 252 252 253 253 254 254 254 254 254 254 253 253 253 254 256 255 255 254 253 253 253 253 254 255 257 256 255 255 256 256 257 257 258 259 260 260 259 259 261 261 262